Погода в Хагатне

Гуам     13°28′21″N   144°45′11″E
темп.,
°C
ветер,
м/с
пор.,
м/с
влажн.,
%
обл.,
%
осадки,
мм/ч
давл.,
гПа
погр.,
м
20 апреля, вт
вт2001:00+26всв347235 0.0 1011416
04:00+26всв237629 0.0 1010309
07:00+27всв2477100 0.1 1012346
10:00+29в4570100 0.8 1012966
13:00+30в3364100 0.8 10111058
16:00+29в4467100 1.1 1009885
19:00+28в457125 0.1 1010592
22:00+27всв457514 0.1 1012379
21 апреля, ср
ср2101:00+27в457658 0.0 1011392
04:00+26всв3474100 0.0 1011394
07:00+26всв3571100 0.0 1012453
10:00+29всв4458100 0.0 10131158
13:00+29св545792 0.0 10101052
16:00+29св445843 0.0 10091008
19:00+27св456767 0.0 1010562
22:00+26всв357296 0.0 1012525
22 апреля, чт
чт2201:00+26всв3571100 0.0 1011539
04:00+26всв3470100 0.0 1010512
07:00+26всв346894 0.0 1011389
10:00+29в3454100 0.0 10111024
13:00+30в335275 0.0 1009966
16:00+30юв2253100 0.0 1007895
19:00+27вюв3362100 0.0 1008332
22:00+26вюв2265100 0.0 1010206
23 апреля, пт
пт2301:00+25юв2267100 0.0 1009208
04:00+25юв126897 0.0 1009188
07:00+26ююв126482 0.0 1010195
10:00+28ю1150100 0.0 1010678
13:00+29зсз215297 0.0 10081038
16:00+29з215447 0.0 10071040
19:00+27зюз126089 0.0 1008560
22:00+27з116288 0.0 1010461
24 апреля, сб
сб2401:00+26юз226641 0.0 1009422
04:00+25ююз237094 0.0 1008383
07:00+26ююз236888 0.0 1010348
10:00+29зюз3357100 0.0 1011908
13:00+29зюз445397 0.0 1009998
16:00+29зюз545428 0.0 10081037
19:00+27зюз346537 0.0 1009528
22:00+26юз236813 0.0 1011490